Voltar ao catálogo

STARLINK-38219

AtivoComunicaçõesSSO
NORAD 100215·PAYLOAD·🇺🇸 United States

Lançado Aug 4, 2026 de Vandenberg Space Force Base

Loading…

Próximas Passagens (próximas 24 horas)

TLE

AtualizadoSource: Space-Track

Época: Sep 14, 2026, 22:57 UTC

1 A0215U 26177C   26257.95648694  .00019667  00000-0  36307-3 0  9995
2 A0215  97.2837 308.7187 0001465  92.5550 267.5869 15.49133639  7635

Acompanhe STARLINK-38219 em tempo real com AllMySat

Download on the App Store